Wind_Speed
51 55 58 58 58 57 57 58 59 58 57 59 61 60 58 56 55 53 51 49 48 46 45 44 42 40 39 37 35 33 32 31 30 28 27 26 26 25 24 23 22 23 23 23
49 52 52 55 57 58 59 58 59 58 58 59 62 62 60 59 58 55 53 51 50 48 47 46 44 43 40 38 37 35 34 32 31 30 29 28 27 26 25 24 24 24 24 25
49 48 50 54 57 59 60 60 58 57 58 59 61 64 63 61 60 58 55 53 52 50 49 47 46 44 42 40 38 36 35 34 33 32 31 30 29 27 27 26 26 26 26 26
46 46 49 53 56 57 58 58 57 57 58 60 61 64 64 62 62 60 57 55 54 52 51 49 48 46 44 41 39 38 37 36 35 34 33 31 30 29 29 28 28 28 27 27
43 46 49 52 53 54 54 54 55 56 57 60 62 65 65 63 63 62 58 56 55 53 52 50 49 47 45 43 41 40 39 38 36 35 34 33 31 31 31 30 29 29 29 29
39 44 48 50 51 51 50 51 53 55 57 61 61 63 67 64 62 61 59 57 55 54 53 51 50 48 46 45 43 42 40 39 37 36 35 34 33 33 32 31 31 30 30 30
37 42 45 48 50 50 50 50 50 53 58 61 59 62 67 63 61 60 59 58 56 54 53 52 51 50 48 46 44 43 41 40 39 38 36 35 34 34 34 33 32 32 31 31
35 39 43 46 49 50 50 51 52 51 55 58 59 62 65 60 59 59 59 58 56 54 54 53 52 51 49 47 45 44 43 41 40 39 38 37 36 35 35 34 34 33 33 33
34 34 39 45 47 50 51 52 51 50 50 52 58 60 61 58 57 57 58 58 57 54 54 54 53 52 50 48 46 45 44 43 41 40 39 38 37 36 36 35 35 34 34 34
36 34 34 40 45 49 49 49 50 52 52 52 53 56 58 57 56 55 55 57 57 55 54 54 53 53 51 49 47 46 45 44 42 41 40 39 38 38 37 36 36 36 35 35
33 35 33 38 42 46 50 50 51 52 52 50 50 52 53 53 54 54 53 53 54 55 54 54 53 52 52 51 49 48 46 45 44 43 41 40 39 39 38 37 37 37 36 36
31 33 34 35 37 43 47 50 50 50 51 51 49 48 45 46 48 50 51 51 52 53 53 54 53 52 52 51 50 48 47 45 44 44 43 42 41 40 38 38 37 37 37 36
31 32 32 33 36 40 44 47 50 50 49 50 50 48 42 41 43 46 48 48 49 50 52 53 53 52 52 51 50 49 48 47 45 44 43 42 41 40 39 38 38 37 37 37
31 34 33 33 35 38 42 46 47 49 53 51 47 46 44 42 41 42 44 46 47 48 49 50 51 52 51 51 51 50 49 48 46 45 43 43 42 40 40 39 39 38 38 37
31 34 35 36 38 38 40 46 48 48 51 52 46 43 43 43 42 41 41 43 44 46 47 48 50 50 50 50 50 50 49 48 47 45 44 43 42 41 40 40 39 38 37 37
31 33 34 34 38 41 41 43 47 48 50 50 48 45 44 44 44 43 41 41 41 42 44 46 47 48 48 48 49 49 48 47 46 45 44 43 42 42 41 40 39 38 37 36
30 32 34 34 36 40 41 41 43 46 48 50 50 46 46 45 46 45 42 41 42 43 43 45 45 45 46 47 47 47 47 46 46 45 44 43 42 41 40 40 39 38 38 37
30 32 34 35 36 38 37 38 39 41 45 47 50 49 47 47 46 46 45 44 44 44 44 44 44 44 44 45 45 46 46 46 45 43 42 42 42 41 40 39 39 39 38 37
29 30 33 35 36 36 36 36 36 39 41 45 48 51 50 49 48 47 47 47 46 47 46 45 44 44 43 43 44 44 44 44 44 43 42 42 41 40 40 39 39 38 38 37
28 29 31 33 34 35 35 34 35 37 38 42 47 49 51 50 51 48 46 47 47 47 47 46 45 44 43 43 43 43 43 43 42 42 42 42 41 40 40 39 39 38 37 37
26 28 29 30 34 36 34 33 34 35 35 38 43 48 50 51 51 50 48 46 47 47 47 46 45 45 44 44 44 43 42 42 42 42 42 42 41 40 39 39 39 38 37 37
26 27 28 29 31 33 33 33 34 35 36 36 39 44 48 50 50 49 48 46 47 47 47 46 46 46 45 45 44 44 43 42 42 42 41 41 41 40 40 39 39 38 37 37
27 28 29 31 30 30 32 34 35 35 36 37 38 40 44 47 48 48 48 47 47 48 47 46 46 46 45 45 44 44 43 43 42 41 41 40 40 40 39 39 38 37 37 37
26 29 31 32 31 32 32 34 35 35 36 38 40 40 42 43 45 46 46 45 45 46 46 46 46 45 45 44 43 43 43 43 42 41 40 40 39 39 38 38 37 37 37 36
25 29 31 32 32 34 34 35 35 36 37 38 40 41 41 42 43 44 45 45 44 44 45 45 44 44 44 44 44 43 43 42 42 42 41 40 39 38 37 36 36 36 35 35
24 28 31 31 31 34 35 35 35 36 37 38 39 40 40 41 42 43 44 44 44 44 44 44 45 45 45 44 43 43 42 42 42 42 41 40 39 37 36 35 35 34 35 35
Wind_Direction
230 229 226 224 226 228 229 230 230 228 226 227 227 227 225 224 224 224 224 224 224 224 225 226 226 227 228 229 230 231 233 236 238 240 242 245 248 253 259 263 268 272 277 281
228 228 227 225 225 226 227 229 229 228 227 228 228 227 225 224 224 224 224 224 224 225 225 226 227 228 229 230 232 232 234 236 238 240 243 245 248 253 259 263 267 271 275 280
228 226 226 225 224 225 226 227 228 228 228 228 230 229 226 225 225 224 224 224 225 226 226 227 228 229 230 231 233 234 235 237 239 241 242 245 249 254 259 263 266 270 275 279
227 223 224 225 225 224 226 226 228 229 229 229 229 231 226 225 225 224 224 224 224 226 227 228 229 230 231 232 234 235 236 238 239 241 244 247 251 254 258 262 266 270 274 278
227 224 224 224 224 224 225 225 228 228 229 231 229 232 228 226 226 225 224 225 225 226 228 229 229 231 232 233 234 236 237 238 239 242 245 248 251 254 258 262 266 270 274 277
228 225 225 224 223 223 223 224 226 228 229 230 228 231 231 227 226 226 225 226 226 227 229 230 231 231 232 233 235 236 237 239 241 243 246 249 252 255 258 262 266 270 274 276
228 226 224 222 220 218 219 220 223 225 227 230 227 231 231 227 227 228 227 227 227 228 229 230 231 232 233 234 235 237 238 239 241 243 246 248 252 255 259 262 266 269 272 275
230 226 224 222 219 218 219 220 222 225 229 230 230 232 230 229 230 229 229 229 228 228 229 231 232 233 233 235 235 237 238 239 241 243 246 249 252 255 258 262 265 268 272 275
231 229 224 224 222 221 221 222 221 225 229 231 233 233 232 230 230 230 230 230 229 228 229 231 232 233 234 235 236 237 238 239 241 243 246 249 252 255 258 262 264 267 271 274
234 233 226 225 225 223 223 222 220 223 227 231 234 233 232 232 232 231 231 231 231 230 230 231 232 233 234 235 236 237 238 239 241 244 246 249 252 255 258 261 264 267 270 273
234 234 227 223 223 224 220 220 221 224 226 230 233 234 233 234 233 233 233 232 232 231 231 231 233 234 235 236 236 238 239 241 242 244 246 249 252 255 258 261 264 267 270 272
231 233 229 226 224 223 223 221 221 223 226 227 229 230 229 232 232 232 232 232 232 231 231 232 233 234 236 236 236 238 239 241 242 244 246 248 251 255 258 260 263 266 269 271
231 231 230 228 225 220 222 221 221 223 226 226 227 227 226 228 231 231 231 231 232 230 231 232 233 235 236 237 237 238 239 241 242 244 246 248 251 254 256 259 262 265 268 271
232 231 231 229 225 223 222 221 221 224 226 224 224 223 222 226 229 230 230 230 231 230 229 231 233 234 235 236 237 238 239 241 242 244 245 248 250 253 256 259 261 264 267 270
237 234 234 233 230 226 225 221 221 223 224 224 223 222 220 222 225 226 227 227 230 231 230 230 231 232 234 235 236 237 238 240 242 243 245 248 251 253 256 258 261 264 266 269
239 238 236 235 233 231 229 226 224 224 224 223 222 222 220 220 222 223 224 224 226 228 229 230 230 230 231 232 234 236 237 239 241 243 245 248 250 253 255 258 260 263 265 268
241 240 238 236 235 234 232 228 228 226 225 226 224 222 221 221 222 224 225 224 224 225 226 227 228 228 230 231 233 235 237 239 240 243 245 247 250 253 255 257 259 262 265 267
242 242 242 239 235 234 229 228 229 227 226 226 225 224 224 222 222 222 223 222 224 226 225 226 228 227 227 229 232 233 235 238 240 242 245 247 250 253 255 257 259 261 264 267
242 241 242 241 239 235 227 225 227 229 229 228 226 224 224 224 223 223 224 223 223 226 227 227 227 227 227 229 231 233 235 237 239 242 244 248 250 251 253 256 259 262 265 268
241 241 242 240 239 237 231 226 228 230 229 227 227 225 223 224 225 224 225 223 223 225 226 226 227 227 228 229 231 233 235 237 239 241 244 246 248 250 252 255 258 261 265 268
242 241 240 239 239 238 232 231 230 231 228 227 227 226 224 224 223 224 224 223 222 223 225 226 227 228 228 230 232 233 235 237 239 241 243 245 247 249 252 255 258 261 264 268
240 240 238 236 236 234 231 231 230 232 230 227 225 224 224 223 222 223 222 223 223 222 223 224 225 227 228 230 232 233 235 236 239 241 243 245 247 250 252 256 258 261 264 267
241 239 238 235 233 230 228 229 230 232 232 228 226 225 223 222 222 223 222 223 223 224 224 225 226 226 228 229 231 233 235 237 238 240 242 245 248 251 253 256 259 261 264 268
240 240 240 237 231 228 227 228 229 231 231 229 228 226 224 225 225 224 222 223 223 224 225 226 227 227 228 229 231 232 234 235 237 239 242 245 247 250 253 256 259 262 265 269
240 240 241 240 235 230 228 230 230 230 230 230 230 229 227 226 225 224 223 223 222 225 226 227 228 228 228 229 230 232 233 235 237 239 241 245 247 249 252 255 259 262 265 268
240 241 239 237 234 231 227 228 230 230 229 229 229 229 228 226 225 225 225 224 223 225 227 228 229 229 229 230 231 232 234 237 239 240 243 245 246 249 252 256 259 262 265 268
Height
5585 5591 5600 5612 5622 5632 5640 5647 5655 5665 5674 5679 5685 5694 5704 5711 5718 5725 5733 5740 5747 5754 5760 5766 5771 5776 5780 5785 5790 5794 5798 5801 5805 5808 5811 5813 5815 5817 5818 5819 5820 5820 5820 5820
5573 5580 5594 5603 5610 5618 5626 5634 5643 5653 5661 5667 5673 5681 5691 5700 5708 5716 5724 5731 5739 5746 5752 5758 5764 5769 5774 5779 5784 5788 5792 5796 5799 5803 5805 5807 5809 5811 5813 5814 5815 5815 5815 5815
5562 5575 5584 5589 5597 5605 5613 5623 5634 5642 5650 5655 5662 5668 5679 5689 5697 5706 5714 5722 5730 5737 5744 5750 5756 5762 5767 5773 5777 5782 5786 5789 5793 5796 5798 5801 5804 5806 5807 5808 5809 5809 5809 5809
5554 5564 5570 5577 5586 5594 5603 5616 5624 5631 5637 5643 5650 5655 5668 5678 5686 5695 5705 5713 5721 5729 5735 5742 5748 5754 5760 5766 5771 5775 5779 5782 5786 5789 5792 5795 5798 5800 5801 5802 5803 5803 5804 5804
5546 5554 5560 5567 5578 5587 5597 5608 5614 5620 5626 5631 5638 5644 5656 5666 5675 5686 5697 5705 5713 5720 5727 5734 5740 5747 5753 5758 5763 5767 5771 5775 5779 5782 5786 5789 5791 5793 5794 5795 5797 5797 5798 5797
5539 5546 5551 5560 5570 5579 5588 5596 5602 5607 5612 5616 5627 5633 5642 5655 5668 5679 5688 5696 5704 5712 5719 5726 5732 5738 5744 5750 5755 5759 5764 5768 5772 5775 5778 5781 5784 5786 5787 5789 5790 5791 5791 5791
5531 5536 5543 5551 5559 5568 5576 5583 5590 5594 5597 5605 5619 5621 5631 5650 5660 5669 5679 5687 5695 5703 5710 5717 5723 5729 5735 5741 5747 5751 5756 5760 5764 5768 5771 5774 5776 5778 5780 5782 5783 5784 5784 5784
5523 5529 5535 5542 5550 5558 5566 5573 5581 5587 5593 5601 5608 5610 5626 5642 5651 5659 5668 5676 5685 5693 5701 5708 5714 5720 5727 5733 5738 5743 5748 5752 5756 5760 5764 5766 5768 5771 5773 5774 5776 5777 5777 5777
5516 5523 5530 5535 5542 5549 5556 5562 5574 5580 5585 5591 5596 5607 5619 5630 5638 5648 5657 5666 5675 5684 5691 5698 5704 5711 5717 5724 5729 5735 5739 5744 5748 5752 5755 5758 5761 5763 5765 5767 5768 5769 5769 5769
5510 5515 5522 5529 5534 5539 5548 5556 5563 5569 5575 5581 5589 5598 5609 5621 5630 5640 5648 5657 5666 5674 5681 5688 5695 5701 5708 5714 5720 5725 5730 5735 5739 5743 5747 5750 5753 5755 5757 5758 5760 5761 5761 5761
5505 5509 5515 5520 5524 5531 5539 5546 5553 5561 5568 5576 5583 5594 5604 5613 5622 5630 5639 5647 5655 5663 5671 5678 5685 5692 5698 5704 5710 5716 5721 5726 5730 5734 5738 5741 5744 5746 5748 5750 5751 5752 5753 5753
5499 5503 5507 5513 5519 5525 5531 5538 5546 5553 5560 5568 5576 5588 5595 5602 5610 5619 5628 5636 5644 5651 5659 5667 5674 5681 5687 5694 5701 5706 5712 5717 5721 5725 5729 5732 5735 5737 5739 5741 5743 5744 5744 5744
5493 5497 5502 5507 5513 5517 5522 5529 5537 5544 5552 5559 5567 5580 5588 5594 5601 5609 5618 5625 5632 5640 5648 5656 5663 5670 5677 5684 5691 5696 5702 5707 5712 5716 5720 5723 5726 5728 5731 5732 5733 5734 5735 5736
5488 5491 5496 5500 5504 5509 5515 5522 5529 5535 5541 5550 5560 5572 5581 5588 5593 5600 5608 5615 5622 5630 5637 5645 5652 5660 5667 5674 5680 5686 5692 5697 5702 5706 5710 5714 5717 5719 5721 5723 5724 5725 5726 5726
5482 5486 5489 5493 5497 5502 5507 5514 5520 5527 5535 5545 5555 5563 5573 5580 5586 5592 5599 5605 5612 5620 5627 5635 5642 5649 5656 5663 5670 5676 5682 5687 5692 5696 5701 5704 5707 5710 5712 5714 5715 5716 5717 5717
5476 5479 5483 5486 5490 5494 5499 5506 5512 5520 5528 5537 5546 5555 5563 5569 5575 5582 5589 5596 5603 5610 5617 5624 5631 5639 5646 5653 5659 5666 5671 5677 5682 5687 5691 5694 5697 5700 5702 5704 5706 5707 5707 5708
5470 5473 5476 5480 5483 5486 5493 5500 5506 5513 5521 5529 5537 5547 5552 5558 5565 5572 5580 5587 5593 5600 5607 5614 5621 5629 5636 5643 5649 5655 5661 5666 5671 5676 5680 5684 5687 5690 5692 5694 5696 5697 5698 5699
5463 5466 5469 5473 5477 5481 5490 5494 5499 5506 5513 5520 5528 5535 5542 5549 5556 5562 5569 5577 5584 5591 5598 5605 5612 5619 5626 5632 5639 5645 5650 5656 5661 5666 5670 5674 5677 5680 5682 5684 5686 5688 5689 5689
5456 5459 5462 5466 5469 5473 5482 5487 5492 5498 5505 5511 5517 5525 5533 5541 5547 5554 5560 5567 5575 5582 5589 5596 5603 5610 5617 5623 5629 5635 5641 5646 5651 5656 5660 5663 5667 5670 5672 5675 5677 5678 5679 5680
5450 5452 5456 5459 5462 5467 5475 5480 5484 5490 5496 5502 5508 5515 5523 5530 5538 5546 5551 5558 5565 5573 5580 5587 5594 5601 5608 5614 5620 5626 5631 5636 5641 5646 5650 5653 5657 5660 5662 5665 5666 5668 5669 5670
5443 5446 5448 5451 5454 5460 5468 5473 5478 5484 5489 5493 5498 5504 5512 5519 5528 5536 5542 5548 5556 5563 5571 5578 5585 5592 5599 5605 5611 5616 5622 5627 5632 5636 5640 5643 5647 5650 5652 5655 5657 5658 5660 5660
5436 5439 5442 5444 5448 5457 5462 5465 5470 5473 5478 5483 5488 5495 5502 5510 5518 5525 5533 5539 5547 5554 5561 5568 5575 5582 5589 5595 5601 5607 5612 5617 5621 5626 5630 5634 5637 5640 5642 5645 5647 5648 5650 5651
5430 5433 5435 5438 5444 5448 5452 5456 5460 5464 5470 5475 5480 5486 5493 5500 5508 5515 5523 5530 5537 5545 5552 5559 5566 5573 5579 5585 5591 5597 5602 5607 5612 5616 5620 5624 5627 5630 5632 5635 5637 5639 5640 5641
5422 5424 5427 5430 5435 5440 5443 5447 5452 5456 5461 5466 5472 5477 5484 5491 5498 5505 5513 5521 5528 5535 5542 5549 5556 5563 5569 5575 5581 5587 5592 5597 5602 5606 5610 5614 5617 5620 5623 5625 5627 5629 5630 5631
5415 5417 5419 5422 5427 5431 5435 5439 5443 5448 5452 5458 5463 5469 5475 5482 5489 5496 5503 5511 5519 5526 5532 5539 5546 5553 5559 5565 5571 5577 5582 5587 5592 5596 5600 5604 5607 5611 5613 5616 5618 5620 5621 5621
5408 5409 5412 5415 5419 5421 5427 5431 5435 5439 5444 5449 5455 5461 5467 5473 5480 5487 5494 5502 5509 5516 5523 5529 5536 5543 5549 5555 5561 5566 5572 5577 5582 5586 5590 5594 5598 5601 5604 5606 5608 5609 5611 5611